STARLINK-11537, 62911

Orbit data source: Space-Track

STARLINK-11537, 62911 is a payload satellite owned by SpaceX/Seattle (US) in LEO that was launched on Sat, 08 Feb 2025 UTC via an FALCON 9 launch vehicle from the Air Force Eastern Test Range (AFETR). Payload-class satellites include a variety of spacecraft equipped with specific instruments for various scientific and technological missions. These include communications satellites like Starlink; space stations such as the ISS; scientific satellites like the Hubble; Earth observation satellites from companies like Planet Labs, Umbra, and HawkEye 360; GPS; miniature CubeSats for education and research; and military/defense satellites.

Loading next visibility...
Identifier
62911, 2025-027E
Orbit
LEO
Last TLE update
20 hours ago
Origin
Manufacturer
SpaceX/Seattle
Mission
Operational Commercial Communications
Bus & Motor
STARLINK V2M, Unknown motor
Mass
730 kg wet, ~700 kg dry
Launch date (UTC)
2025-02-08 (3 months ago)
Launch vehicle
FALCON 9
Launch site
Air Force Eastern Test Range (AFETR)
Object type
Payload
Rocket body
Debris
Shape & HBR
Box + 2 Pan, 29 m
Radar Cross Section
36.964 m², Large (>1 m²)

Expand to show TLE details & history

TLE from 20 hours ago
0 STARLINK-11537
1 62911U 25027E   25128.43918687  .00000697  00000-0  89277-5 0  9999
2 62911  43.0006  27.6597 0001128 272.0022  88.0716 15.70829420 15180
Epoch: 2025-05-08T10:32Z
Definitive object data (Epoch: 2025-05-08T10:32:25.745Z)
Latitude
-0.00005°
Longitude
3.0427°
Altitude
356.271 km
Speed
7.697 km/s
True Right ascension
01h 50m 38s
True Declination
0° 00' 00"
Sunlit
Object was in daylight at TLE epoch
Visualization TLE readout
Latitude
42.06427°
Longitude
72.19046°
Altitude
360.116 km
Speed
7.699 km/s
Apparent Right ascension
04h 40m 39s
Apparent Declination
2° 43' 53"
Sunlit
Object is in daylight
Visualization observer readout
Local Sidereal Time
14:51:29
Azimuth
322.922° NNW
Elevation
-40.56°
Doppler factor
1
Orbital elements
Apogee altitude
359.267 km
Perigee altitude
357.747 km
Semi-major axis
6,736.644 km
Eccentricity
0.0001128
Inclination
43.0006°
RAAN
27.6597°
Arg. of periapsis
272.0022°
True anomaly
88.08452°
Mean anomaly
88.0716°
Eccentric anomaly
88.07806°
Mean motion
3.92534 °/min
BSTAR
0.0000089277
Orbital period
91.71 mins
Loading maneuver chart data...
Loading SW <> Apogee altitude chart data...
Loading historical data...
Loading historical data...
Loading historical data...
Loading historical data...
Loading historical data...
Loading historical data...
Loading historical data...

STARLINK-11537 Visibility forecast

Observer location: undefined°, undefined°

Span
Click to sort rows by Start time (UTC) header in descending order
Start Az.
Max El. time (UTC)
Max El. Az.
Max El.
End time (UTC)
End Az.
5 mins2025-05-09 20:19:36.393Z216.537° SW2025-05-09 20:21:36.393Z168.988° S28.725°2025-05-09 20:24:36.393Z84.9° E
4 mins2025-05-09 21:56:36.393Z278.606° WNW2025-05-09 21:57:36.393Z312.425° NW37.997°2025-05-09 22:00:36.393Z67.78° E
4 mins2025-05-09 23:32:36.393Z299.412° NW2025-05-09 23:34:36.393Z26.495° NE34.812°2025-05-09 23:36:36.393Z77.934° E
4 mins2025-05-10 01:08:36.393Z279.856° WNW2025-05-10 01:10:36.393Z188.814° SSW41.28°2025-05-10 01:12:36.393Z124.318° SE
|